Location: Nelson
(41.2830°S, 173.2830°E)
Time: 07:36:30
(UTC+12:00)

ISS - Pass Details

Date: 17 May 2025
Orbit: 415 x 416 km, 51.6° (Epoch: 16 June)

Event Time Altitude Azimuth Distance (km) Brightness Sun altitude
Exits shadow 04:59:41 10° 35° (NE) 1,480 -0.6 -28.1°
Maximum altitude 05:00:37 11° 51° (NE) 1,429 -0.4 -27.9°
Drops below altitude 10° 05:01:44 10° 71° (ENE) 1,508 -0.1 -27.7°
Sets 05:05:07 0° 106° (ESE) 2,393 1.2 -27.1°
